Погода в Варне

Россия / Челябинская область     53°22′56″N   60°58′31″E
темп.,
°C
ветер,
м/с
пор.,
м/с
влажн.,
%
обл.,
%
осадки,
мм/ч
давл.,
гПа
погр.,
м
26 сентября, вс
вс2623:00+10св3563100 0.4 1015143
02:00+10в5124599 0.0 1014285
05:00+10в6143665 0.0 1012326
08:00+11вюв71433100 0.0 1012436
11:00+13вюв71331100 0.0 1011671
14:00+16в71023100 0.0 10111179
17:00+15в91227100 0.1 1010909
20:00+11всв81444100 0.0 1011844
27 сентября, пн
пн2723:00+9всв91466100 0.2 1010886
02:00+8всв91540100 0.0 1010804
05:00+6всв91442100 0.0 1010779
08:00+5св81345100 0.3 1011894
11:00+4всв91361100 1.3 10111025
14:00+2св71498100 3.6 1013709
17:00+1всв81597100 7.2 1014667
20:00+1всв81698100 1.9 1015666
28 сентября, вт
вт2823:00+1всв81498100 3.1 1015783
02:00+1всв71398100 0.9 1015803
05:00+1св81598100 2.4 1015881
08:00+1св81598100 2.1 1015877
11:00+1св81598100 3.8 1016901
14:00+2св81598100 0.6 1017931
17:00+3св9149699 0.8 10181018
20:00+3св61277100 0.1 1019675
29 сентября, ср
ср2923:00+3ссв71375100 0.1 1019575
02:00+1с71384100 0.0 1020580
05:00+2с71285100 0.0 1021595
08:00+2ссв71284100 0.0 1022625
11:00+3ссв81087100 0.0 1023827
14:00+6св6969100 0.2 10231262
17:00+6ссв6965100 0.4 10241078
20:00+4с487699 0.0 1025194
30 сентября, чт
чт3023:00+3с497895 0.0 1025218
02:00+3с4980100 0.0 1026227
05:00+2с4982100 0.0 1027210
08:00+1ссз488359 0.0 1028254
11:00+5с566324 0.0 1028756
14:00+8ссз455062 0.0 10271465
17:00+8сз454921 0.0 10261420
20:00+4зсз47795 0.0 1026138